Weather Service Report


618 
ASUS44 KLIX 231910
RWRLA 
LOUISIANA WEATHER ROUNDUP
NATIONAL WEATHER SERVICE NEW ORLEANS LA
200 PM CDT SAT AUG 23 2014

NOTE: "FAIR" INDICATES FEW OR NO CLOUDS BELOW 12,000 FEET WITH NO
      SIGNIFICANT WEATHER AND/OR OBSTRUCTIONS TO VISIBILITY.
      SKY/WX - SKY CONDITION AND SIGNIFICANT WEATHER.
      TMP - AIR TEMPERATURE.    DP   - DEWPOINT TEMPERATURE.
      RH  - RELATIVE HUMIDITY.  PRES - PRESSURE.
      HX  - HEAT INDEX.         WCI  - WIND CHILL INDEX.

*  THESE STATIONS ARE NOT NWS OR FAA STATIONS AND ARE NOT UNDER
   NWS QUALITY CONTROL.

LAZ040-048-061>063-065-066-069-232000-
SOUTHEAST LOUISIANA
  
CITY           SKY/WX    TMP DP  RH WIND       PRES   REMARKS
N.O. AUDUBON     N/A     98  78  53 MISG        N/A  HX 115           
N.O. INTL ARPT MOSUNNY   94  74  52 N7        30.00F HX 104           
N.O. LAKEFRONT SUNNY     91  78  65 W8        30.00F HX 106           
N.O. DOWNTOWN* FAIR      95  72  46 N6        30.00F HX 103           
SLIDELL        MOSUNNY   96  72  45 VRB5      29.98F HX 104           
BATON ROUGE    PTSUNNY   90  74  59 N3        30.01F HX  99           
BOOTHVILLE     SUNNY     92  76  59 VRB6      30.01F HX 104           
BELLE CHASSE   PTSUNNY   95  72  47 CALM      29.98F HX 103           
BOGALUSA*      FAIR      96  72  46 CALM      30.01F HX 104           
GALLIANO*      NOT AVBL                                               
NEW ROADS*     FAIR      91  75  58 N5        30.02F HX 101           
GONZALES*      FAIR      92  76  60 CALM      30.00F HX 104           
HAMMOND*       SUNNY     99  66  34 W6        30.01F HX 102           
HOUMA*         MOSUNNY   97  70  41 NE6       30.00F HX 103           
PORT FOURCHON* CLEAR     93  73  52 E7        30.02F HX 102           

$$

LAZ041-044-053-054-232000-
SOUTHWEST LOUISIANA
  
CITY           SKY/WX    TMP DP  RH WIND       PRES   REMARKS
LAKE CHARLES   MOSUNNY   92  72  51 CALM      30.00F HX  99           
LAFAYETTE      PTSUNNY   93  74  53 MISG      30.01F HX 103           
PATTERSON      MOSUNNY   93  75  55 N6        30.04F HX 104           
SALT POINT       N/A     91  78  65 VRB5      30.01F HX 106           
NEW IBERIA     MOSUNNY   95  75  52 NE7       30.02F HX 107           
CHENAULT AIRPK MOSUNNY   93  72  49 CALM      30.02F HX 100           

$$

LAZ027-028-232000-
CENTRAL LOUISIANA
  
CITY           SKY/WX    TMP DP  RH WIND       PRES   REMARKS
FORT POLK      MOSUNNY   93  70  46 E3        30.02F HX  99           
ALEXANDRIA INT PTSUNNY   95  74  50 VRB3      30.00F HX 105           
ALEXANDRIA     SUNNY     94  72  48 CALM      30.02F HX 102           

$$

LAZ001-002-232000-
NORTHWEST LOUISIANA
  
CITY           SKY/WX    TMP DP  RH WIND       PRES   REMARKS
SHREVEPORT     MOSUNNY   95  68  41 VRB7      30.00F HX  99           
BARKSDALE AFB  SUNNY     96  66  38 SE8       30.01F HX  99           
DTN SHREVEPORT SUNNY     95  66  38 W7        30.00F HX  98           

$$

LAZ014-016-232000-
NORTHEAST LOUISIANA
  
CITY           SKY/WX    TMP DP  RH WIND       PRES   REMARKS
MONROE         MOSUNNY   93  71  48 W5        30.02F HX 100           
TALLULAH       SUNNY     94  71  47 CALM      30.01F HX 101           

$$



619 
ASUS44 KLIX 231910
RWRLIX
NEW ORLEANS REGIONAL WEATHER ROUNDUP
NATIONAL WEATHER SERVICE NEW ORLEANS LA
200 PM CDT SAT AUG 23 2014

NOTE: "FAIR" INDICATES FEW OR NO CLOUDS BELOW 12,000 FEET WITH NO
      SIGNIFICANT WEATHER AND/OR OBSTRUCTIONS TO VISIBILITY.
      SKY/WX - SKY CONDITION AND SIGNIFICANT WEATHER.
      TMP - AIR TEMPERATURE.     DP    - DEWPOINT TEMPERATURE.
      RH  - RELATIVE HUMIDITY.   PRES  - PRESSURE.
      HI  - HEAT INDEX.          WCI   - WIND CHILL INDEX.

*  THESE STATIONS ARE NOT NWS OR FAA STATIONS AND ARE NOT UNDER
   NWS QUALITY CONTROL. 

LAZ038-040-048-061>063-065>067-069-232000-
SOUTHEAST LOUISIANA
  
CITY           SKY/WX    TMP DP  RH WIND       PRES   REMARKS
N.O. AUDUBON     N/A     98  78  53 MISG        N/A  HX 115           
N.O. INTL ARPT MOSUNNY   94  74  52 N7        30.00F HX 104           
N.O. LAKEFRONT SUNNY     91  78  65 W8        30.00F HX 106           
N.O. DOWNTOWN*   N/A     95  72  46 N6        30.00F HX 103           
SLIDELL        MOSUNNY   96  72  45 VRB5      29.98F HX 104           
BATON ROUGE    PTSUNNY   90  74  59 N3        30.01F HX  99           
BOOTHVILLE     SUNNY     92  76  59 VRB6      30.01F HX 104           
BELLE CHASSE   PTSUNNY   95  72  47 CALM      29.98F HX 103           
BOGALUSA*        N/A     96  72  46 CALM      30.01F HX 104           
GALLIANO*      NOT AVBL                                               
NEW ROADS*       N/A     91  75  58 N5        30.02F HX 101           
GONZALES*        N/A     92  76  60 CALM      30.00F HX 104           
HAMMOND*       SUNNY     99  66  34 W6        30.01F HX 102           
HOUMA*         MOSUNNY   97  70  41 NE6       30.00F HX 103           
PORT FOURCHON* CLEAR     93  73  52 E7        30.02F HX 102           

$$

MSZ070-080>082-232000-
SOUTHERN MISSISSIPPI
  
CITY           SKY/WX    TMP DP  RH WIND       PRES   REMARKS
MCCOMB         PTSUNNY   91  71  51 NW8       30.02F HX  97           
GULFPORT       CLOUDY    94  74  52 VRB5      29.98F HX 104           
BILOXI         MOSUNNY   97  73  45 VRB2      29.98F HX 106           
PASCAGOULA     MOSUNNY   97  74  47 N7        29.98F HX 108           
STENNIS ARPT*  MOSUNNY  N/A N/A N/A VRB5      29.98F                  

$$

COASTAL OBSERVATIONS
LAKE AND NEARSHORE STATIONS
  
STATION/POSITION TIME  TEMP    WIND        PRES    WAVE
                       AIR SEA DIR/SP/G            HT/PER
                 (UTC) (F)     (DEG/KT/KT) (MB)    (FT/S)
PASCAGOULA       1900   91     180/  6/  7 1015.0
WAVELAND YACHT   1900   90     140/  8/  9 1014.9
GRAND ISLE       1900   90 90  350/  3/  5 1016.8
SOUTHWEST PASS   1900   95 89  340/  7/  8 1016.4
NEW CANAL        1900   89 86  320/  3/  6 1016.4
SHELL BEACH      1900   89 85  340/  4/  6 1015.9

OFFSHORE STATIONS
  
STATION/POSITION TIME  TEMP    WIND        PRES    WAVE
                       AIR SEA DIR/SP/G            HT/PER
                 (UTC) (F)     (DEG/KT/KT) (MB)    (FT/S)
64 S DAUPHIN ISL 1835   87 90  340/  4/  6 1015.9

$$


Return to Home page


Western Regional Climate Center, wrcc@dri.edu